Tracking 25710 objects as of 5-Jul-2022
HD Live streaming from Space Station
objects crossing your sky now

FENGYUN 1C DEB

Track FENGYUN 1C DEB now!
10-day predictions


NORAD ID: 31613
Int'l Code: 1999-025BZT
Perigee: 785.4 km
Apogee: 1,322.5 km
Inclination: 98.4 °
Period: 106.1 minutes
Semi major axis: 7424 km
RCS: 0.0083 m2 (small)
Launch date: May 10, 1999
Source: People's Republic of China (PRC)
Launch site: Taiyaun Space Center, China (TSC)

Note: This is SATELLITE DEBRIS
aabbcc
Your satellite tracking list
Your tracking list is empty




NASA's NSSDC Master Catalog

Two Line Element Set (TLE):
1 31613U 99025BZT 22185.41202476  .00000756  00000-0  72767-3 0  9993
2 31613  98.4477 163.9121 0361674 172.2344 188.4612 13.56945253746716
Source of the keplerian elements: AFSPC